Powrót do katalogu

MIDAS 4

AktywnyMilitariaPO
NORAD 192·PAYLOAD·🇺🇸 United States

Wystrzelony Oct 21, 1961 z Vandenberg Space Force Base

Loading…

Następne Przeloty (najbliższe 24 godziny)

TLE

ŚwieżeSource: Space-Track

Epoka: Sep 14, 2026, 08:38 UTC

1 00192U 61028A   26257.35989498 -.00000026  00000-0 -10272-1 0  9999
2 00192  95.8485 242.3732 0134275 240.2797 118.4635  8.67767974 55895

Śledź MIDAS 4 w czasie rzeczywistym z AllMySat

Download on the App Store